Voltar ao catálogo

COSMOS 1275 DEB

AtivoPO
NORAD 12712·DEBRIS·🇷🇺 Russia

Lançado Jun 4, 1981 de Plesetsk Cosmodrome

Loading…

Próximas Passagens (próximas 24 horas)

TLE

AtualizadoSource: Space-Track

Época: Sep 14, 2026, 17:15 UTC

1 12712U 81053BG  26257.71916653  .00000827  00000-0  65118-3 0  9991
2 12712  82.9808 249.0579 0067996 196.1602 340.4607 13.89608294263889

Acompanhe COSMOS 1275 DEB em tempo real com AllMySat

Download on the App Store